Mobile, AL

3:21 PM CDT on April 24, 2017 (GMT -0500)
Mobile Regional

Weather History for KMOB - June, 2013

Change the Weather History Date:

Tuesday, June 25, 2013

  Actual Average Record
Temperature  
Mean Temperature 81 °F 81 °F  
Max Temperature 90 °F 90 °F 100 °F (1914)
Min Temperature 71 °F 72 °F 61 °F (1974)
Cooling Degree Days 16 16  
Month to date cooling degree days 395 363  
Year to date cooling degree days 759 808  
Since 1 June cooling degree days 395 363  
Growing Degree Days 30 (Base 50)    
Moisture  
Dew Point 72 °F    
Average Humidity 75    
Maximum Humidity 93    
Minimum Humidity 56    
Precipitation  
Precipitation 0.00 in 0.23 in 3.07 in (1997)
Month to date precipitation 4.02 4.98  
Year to date precipitation 32.47 31.82  
Sea Level Pressure  
Sea Level Pressure 30.09 in    
Wind  
Wind Speed 4 mph (SSE)    
Max Wind Speed 14 mph    
Max Gust Speed 18 mph    
Visibility 10 miles    
Events      
T = Trace of Precipitation, MM = Missing Value Source: NWS Daily Summary

Daily Weather History Graph

Daily Weather History Graph

Search for Another Location

Airport or City:

Trip Planner

Search our weather history database for the weather conditions in past years. The results will help you decide how hot, cold, wet, or windy it might be!

Date:

Astronomy

Jun. 25, 2013 Rise Set
Actual Time 5:51 AM CDT 7:59 PM CDT
Civil Twilight 5:24 AM CDT 8:27 PM CDT
Nautical Twilight 4:50 AM CDT 9:00 PM CDT
Astronomical Twilight 4:14 AM CDT 9:37 PM CDT
Moon 9:58 PM CDT (6/25) 8:20 AM CDT (6/25)
Length of Visible Light 15h 03m
Length of Day
14h 07m
Waning Gibbous, 92% of the Moon is Illuminated
Jun 25
Waning Gibbous
Jun 29
Last Quarter
Jul 8
New
Jul 15
First Quarter
Jul 22
Full

Hourly Weather History & Observations

Time (CDT) Temp. Heat Index Dew Point Humidity Pressure Visibility Wind Dir Wind Speed Gust Speed Precip Events Conditions
12:56 AM 75.0 °F - 71.1 °F 87% 30.12 in 10.0 mi SSE 3.5 mph - N/A   Clear
1:56 AM 73.9 °F - 71.1 °F 91% 30.11 in 10.0 mi Calm Calm - N/A   Clear
2:56 AM 73.9 °F - 71.1 °F 91% 30.09 in 10.0 mi Calm Calm - N/A   Clear
3:56 AM 73.0 °F - 70.0 °F 90% 30.09 in 10.0 mi ESE 3.5 mph - N/A   Clear
4:56 AM 72.0 °F - 69.1 °F 91% 30.10 in 10.0 mi Calm Calm - N/A   Clear
5:56 AM 71.1 °F - 69.1 °F 93% 30.11 in 10.0 mi Calm Calm - N/A   Mostly Cloudy
6:56 AM 75.9 °F - 72.0 °F 87% 30.12 in 10.0 mi NNE 3.5 mph - N/A   Scattered Clouds
7:56 AM 80.1 °F 84.5 °F 73.9 °F 81% 30.14 in 10.0 mi NE 3.5 mph - N/A   Scattered Clouds
8:56 AM 84.0 °F 90.2 °F 73.0 °F 69% 30.14 in 10.0 mi Calm Calm - N/A   Scattered Clouds
9:11 AM 82.4 °F 87.2 °F 71.6 °F 70% 30.15 in 7.0 mi Calm Calm - N/A   Mostly Cloudy
9:56 AM 84.0 °F 89.0 °F 71.1 °F 65% 30.13 in 7.0 mi South 4.6 mph - N/A   Mostly Cloudy
10:56 AM 86.0 °F 92.2 °F 72.0 °F 63% 30.12 in 10.0 mi Calm Calm - N/A   Mostly Cloudy
11:56 AM 88.0 °F 95.6 °F 73.0 °F 61% 30.12 in 10.0 mi SE 8.1 mph - N/A   Mostly Cloudy
12:56 PM 87.1 °F 94.5 °F 73.0 °F 63% 30.10 in 10.0 mi South 10.4 mph - N/A   Mostly Cloudy
1:56 PM 89.1 °F 96.0 °F 72.0 °F 57% 30.10 in 10.0 mi South 9.2 mph - N/A   Mostly Cloudy
2:56 PM 89.1 °F 95.0 °F 71.1 °F 55% 30.07 in 10.0 mi SSE 4.6 mph - N/A   Mostly Cloudy
3:56 PM 89.1 °F 95.0 °F 71.1 °F 55% 30.06 in 10.0 mi South 6.9 mph - N/A   Scattered Clouds
4:56 PM 87.1 °F 92.8 °F 71.1 °F 59% 30.05 in 10.0 mi South 6.9 mph - N/A   Mostly Cloudy
5:56 PM 87.1 °F 93.6 °F 72.0 °F 61% 30.04 in 10.0 mi South 9.2 mph - N/A   Scattered Clouds
6:56 PM 84.0 °F 89.6 °F 72.0 °F 67% 30.04 in 10.0 mi South 9.2 mph - N/A   Mostly Cloudy
7:56 PM 82.0 °F 87.4 °F 73.0 °F 74% 30.04 in 10.0 mi South 8.1 mph - N/A   Mostly Cloudy
8:56 PM 81.0 °F 85.8 °F 73.0 °F 77% 30.05 in 10.0 mi South 5.8 mph - N/A   Mostly Cloudy
9:56 PM 80.1 °F 84.2 °F 73.0 °F 79% 30.07 in 10.0 mi SSE 5.8 mph - N/A   Mostly Cloudy
10:56 PM 78.1 °F - 72.0 °F 81% 30.06 in 10.0 mi Calm Calm - N/A   Scattered Clouds
11:56 PM 77.0 °F - 73.0 °F 88% 30.04 in 10.0 mi Calm Calm - N/A   Clear